Location: East Guldeford
(50.9500°N, 0.7500°E)
Time: 17:41:04
(UTC+00:00)

Cosmos 1378 - Pass Details

Date: 12 May 2021
Orbit: 491 x 499 km, 82.5° (Epoch: 16 June)

Event Time Altitude Azimuth Distance (km) Brightness Sun altitude
Exits shadow 23:13:28 28° 93° (E) 960 4.4 -20.1°
Maximum altitude 23:13:33 28° 91° (E) 959 4.4 -20.1°
Drops below altitude 10° 23:16:46 10° 31° (NNE) 1,706 6.5 -20.2°
Sets 23:19:05 0° 20° (NNE) 2,596 7.8 -20.3°
